Weather History for Seattle, WA

Change the Weather History Date:

Tuesday, June 25, 2013

  Actual Average Record
Temperature  
Mean Temperature 66 °F 62 °F  
Max Temperature 74 °F 72 °F 88 °F (2006)
Min Temperature 58 °F 53 °F 45 °F (1949)
Degree Days  
Heating Degree Days 0 4  
Month to date heating degree days 49 129  
Since 1 June heating degree days 49 129  
Since 1 July heating degree days 4332 4682  
Cooling Degree Days 1 1  
Month to date cooling degree days 14 13  
Year to date cooling degree days 27 19  
Since 1 June cooling degree days 14 13  
Growing Degree Days 15 (Base 50)    
Moisture  
Dew Point 55 °F    
Average Humidity 67    
Maximum Humidity 87    
Minimum Humidity 46    
Precipitation  
Precipitation 0.39 in 0.04 in 0.39 in (2013)
Month to date precipitation 1.08 1.39  
Year to date precipitation 17.83 18.83  
Sea Level Pressure  
Sea Level Pressure 29.78 in    
Wind  
Wind Speed 6 mph (SSW)    
Max Wind Speed 30 mph    
Max Gust Speed 38 mph    
Visibility 8 miles    
Events Rain , Thunderstorm    
T = Trace of Precipitation, MM = Missing Value Source: NWS Daily Summary

Daily Weather History Graph

Daily Weather History Graph

Search for Another Location

Airport:

Trip Planner

Search our weather history database for the weather conditions in past years. The results will help you decide how hot, cold, wet, or windy it might be!

Date:

Astronomy

Jun. 25, 2013 Rise Set
Actual Time 5:13 AM PDT 9:10 PM PDT
Civil Twilight 4:33 AM PDT 9:50 PM PDT
Nautical Twilight 3:37 AM PDT 10:46 PM PDT
Astronomical Twilight 2:09 AM PDT 12:13 AM PDT
Moon 10:43 PM PDT (6/25) 8:12 AM PDT (6/25)
Length of Visible Light 17h 17m
Length of Day
15h 56m
Waning Gibbous, 92% of the Moon is Illuminated
Jun 25
Waning Gibbous
Jun 29
Last Quarter
Jul 8
New
Jul 15
First Quarter
Jul 22
Full

Hourly Weather History & Observations

Time (PDT) Temp. Dew Point Humidity Pressure Visibility Wind Dir Wind Speed Gust Speed Precip Events Conditions
12:53 AM 61.0 °F 54.0 °F 78% 29.72 in 10.0 mi Calm Calm - N/A   Overcast
1:53 AM 60.1 °F 53.1 °F 78% 29.71 in 10.0 mi SE 3.5 mph - N/A   Overcast
2:53 AM 59.0 °F 53.1 °F 81% 29.72 in 10.0 mi SSE 4.6 mph - 0.00 in   Overcast
3:53 AM 57.9 °F 54.0 °F 87% 29.73 in 6.0 mi SE 5.8 mph - 0.04 in Rain Rain
4:53 AM 57.9 °F 54.0 °F 87% 29.72 in 10.0 mi East 6.9 mph - 0.00 in   Overcast
5:53 AM 59.0 °F 54.0 °F 83% 29.71 in 10.0 mi East 5.8 mph - N/A   Overcast
6:53 AM 59.0 °F 54.0 °F 83% 29.73 in 3.0 mi South 9.2 mph - 0.01 in Rain Light Rain
7:53 AM 60.1 °F 55.0 °F 83% 29.74 in 10.0 mi SE 5.8 mph - 0.08 in   Mostly Cloudy
8:53 AM 61.0 °F 55.9 °F 83% 29.76 in 10.0 mi SW 4.6 mph - N/A   Mostly Cloudy
9:53 AM 62.1 °F 57.0 °F 84% 29.77 in 10.0 mi SW 5.8 mph - N/A   Mostly Cloudy
10:13 AM 64.4 °F 57.2 °F 77% 29.75 in 10.0 mi WSW 5.8 mph - N/A   Mostly Cloudy
10:53 AM 64.9 °F 55.0 °F 70% 29.77 in 10.0 mi SW 10.4 mph - N/A   Mostly Cloudy
11:53 AM 68.0 °F 53.1 °F 59% 29.76 in 10.0 mi SSW 8.1 mph - N/A   Mostly Cloudy
12:53 PM 71.1 °F 55.0 °F 57% 29.77 in 10.0 mi SW 8.1 mph - N/A   Mostly Cloudy
1:53 PM 72.0 °F 53.1 °F 51% 29.78 in 10.0 mi SSE 11.5 mph 18.4 mph N/A   Mostly Cloudy
2:53 PM 73.9 °F 52.0 °F 46% 29.77 in 10.0 mi South 9.2 mph - N/A   Mostly Cloudy
3:53 PM 72.0 °F 52.0 °F 49% 29.76 in 10.0 mi Variable 3.5 mph - N/A   Mostly Cloudy
4:53 PM 71.1 °F 52.0 °F 51% 29.76 in 10.0 mi SW 4.6 mph - N/A   Mostly Cloudy
5:09 PM 64.4 °F 57.2 °F 77% 29.77 in 9.0 mi SSW 24.2 mph 38.0 mph 0.02 in Rain Light Rain
5:12 PM 62.6 °F 57.2 °F 82% 29.79 in 4.0 mi SSW 18.4 mph 38.0 mph 0.04 in Rain , Thunderstorm Light Thunderstorms and Rain
5:17 PM 60.8 °F 57.2 °F 88% 29.80 in 2.0 mi SSW 17.3 mph 33.4 mph 0.07 in Rain , Thunderstorm Thunderstorms and Rain
5:29 PM 60.8 °F 57.2 °F 88% 29.80 in 2.0 mi South 6.9 mph - 0.18 in Rain , Thunderstorm Light Thunderstorms and Rain
5:35 PM 60.8 °F 57.2 °F 88% 29.79 in 3.0 mi Calm Calm - 0.18 in Rain , Thunderstorm Light Thunderstorms and Rain
5:43 PM 60.8 °F 55.4 °F 82% 29.79 in 10.0 mi Calm Calm - 0.18 in Rain Light Rain
5:53 PM 62.1 °F 57.0 °F 84% 29.81 in 10.0 mi West 3.5 mph - 0.18 in Rain Light Rain
6:53 PM 63.0 °F 57.0 °F 81% 29.82 in 9.0 mi West 3.5 mph - 0.01 in Rain Light Rain
7:53 PM 63.0 °F 57.9 °F 84% 29.84 in 10.0 mi South 3.5 mph - 0.02 in   Overcast
8:00 PM 62.6 °F 57.2 °F 82% 29.82 in 10.0 mi SE 8.1 mph - N/A   Overcast
8:19 PM 60.8 °F 57.2 °F 88% 29.83 in 2.5 mi West 9.2 mph - 0.00 in Rain Light Rain
8:21 PM 62.6 °F 55.4 °F 77% 29.83 in 4.0 mi WSW 11.5 mph - 0.00 in Rain Heavy Rain
8:53 PM 60.1 °F 55.0 °F 83% 29.86 in 9.0 mi SSW 8.1 mph - 0.03 in Rain Light Rain
9:53 PM 59.0 °F 55.0 °F 87% 29.89 in 10.0 mi South 6.9 mph - 0.00 in Rain Light Rain
10:53 PM 59.0 °F 54.0 °F 83% 29.90 in 10.0 mi SSE 4.6 mph - 0.02 in   Mostly Cloudy
11:53 PM 61.0 °F 55.9 °F 83% 29.89 in 10.0 mi SE 6.9 mph - N/A   Overcast